Retour au catalogue

STARLINK-6050

ActifCommunicationsVLEO
NORAD 56458·PAYLOAD·🇺🇸 United States

Lancé May 10, 2023 depuis Vandenberg Space Force Base

Loading…

Prochains Passages (prochaines 24 heures)

TLE

FraisSource: CelesTrak SupGP

Époque: Sep 15, 2026, 01:53 UTC

1 56458C 23064L   26258.07895833 -.00019106  00000+0 -16010-2 0  2585
2 56458  70.0026  27.0072 0002813 265.8552  71.6086 14.98345016    10

Suivez STARLINK-6050 en temps réel avec AllMySat

Download on the App Store